When you browse on this site, cookies collect data to enhance your experience and personalize the content and advertising you see.
Visit our Privacy Policy to learn more. By continuing to use the site, you agree to this use of cookies and data.
  • In Hungary
  • List of Countries
  • For 7 days
  • Water Temperature
  • Weather Map
  • News
  • Weather Widgets
  • user-avatar
    Login

    Hourly Weather Prishtina

    Today, 4 April, Saturday

    Time Temperature Precipitation Wind Pressure Humidity
    00:00 +2°C° 0.1 mm 1 mps 666 mmHg 92%
    01:00 +2°C° 0 mm 1 mps 666 mmHg 93%
    02:00 +2°C° 0.5 mm 1 mps 666 mmHg 95%
    03:00 +2°C° 0.5 mm 1 mps 666 mmHg 96%
    04:00 +2°C° 0.5 mm 1 mps 666 mmHg 97%
    05:00 +2°C° 0.3 mm 1 mps 666 mmHg 97%
    06:00 +2°C° 0.3 mm 1 mps 667 mmHg 97%
    07:00 +3°C° 0 mm 1 mps 667 mmHg 97%
    08:00 +3°C° 0.4 mm 1 mps 667 mmHg 96%
    09:00 +2°C° 0.4 mm 2 mps 667 mmHg 96%
    10:00 +2°C° 0.4 mm 2 mps 667 mmHg 95%
    11:00 +2°C° 0.3 mm 2 mps 667 mmHg 95%
    12:00 +2°C° 0.3 mm 2 mps 667 mmHg 95%
    13:00 +2°C° 0 mm 3 mps 667 mmHg 94%
    14:00 +2°C° 0.2 mm 3 mps 667 mmHg 94%
    15:00 +2°C° 0.2 mm 3 mps 667 mmHg 94%
    16:00 +2°C° 0.2 mm 3 mps 666 mmHg 94%
    17:00 +2°C° 0.3 mm 3 mps 667 mmHg 94%
    18:00 +2°C° 0.3 mm 3 mps 667 mmHg 94%
    19:00 +2°C° 0.3 mm 3 mps 667 mmHg 95%
    20:00 +2°C° 0.2 mm 3 mps 667 mmHg 94%
    21:00 +2°C° 0.2 mm 3 mps 668 mmHg 93%
    22:00 +1°C° 0.2 mm 4 mps 668 mmHg 92%
    23:00 +1°C° 0.4 mm 4 mps 668 mmHg 93%

    Tomorrow, 5 April, Sunday

    Time Temperature Precipitation Wind Pressure Humidity
    00:00 +1°C° 0.4 mm 4 mps 668 mmHg 93%
    01:00 0°C° 0.4 mm 4 mps 668 mmHg 93%
    02:00 0°C° 0.3 mm 4 mps 668 mmHg 93%
    03:00 0°C° 0.3 mm 4 mps 668 mmHg 93%
    04:00 0°C° 0.3 mm 4 mps 668 mmHg 93%
    05:00 0°C° 0.4 mm 4 mps 668 mmHg 93%
    06:00 +1°C° 0.4 mm 4 mps 669 mmHg 92%
    07:00 +1°C° 0.4 mm 4 mps 669 mmHg 92%
    08:00 +1°C° 0.3 mm 5 mps 669 mmHg 89%
    09:00 +1°C° 0.3 mm 5 mps 670 mmHg 86%
    10:00 +1°C° 0.3 mm 5 mps 671 mmHg 84%
    11:00 +2°C° 0.1 mm 5 mps 671 mmHg 81%
    12:00 +3°C° 0.1 mm 5 mps 671 mmHg 77%
    13:00 +5°C° 0.1 mm 5 mps 671 mmHg 74%
    14:00 +3°C° 0.1 mm 5 mps 672 mmHg 75%
    15:00 +3°C° 0.1 mm 5 mps 672 mmHg 75%
    16:00 +4°C° 0.1 mm 4 mps 672 mmHg 75%
    17:00 +4°C° 0.3 mm 4 mps 672 mmHg 78%
    18:00 +3°C° 0.3 mm 4 mps 672 mmHg 81%
    19:00 +2°C° 0.3 mm 3 mps 673 mmHg 84%
    20:00 +2°C° 0.1 mm 3 mps 673 mmHg 84%
    21:00 +2°C° 0.1 mm 3 mps 673 mmHg 84%
    22:00 +1°C° 0.1 mm 3 mps 674 mmHg 83%
    23:00 +1°C° 0 mm 3 mps 674 mmHg 81%

    Day after tomorrow, 6 April, Monday

    Time Temperature Precipitation Wind Pressure Humidity
    00:00 0°C° 0 mm 3 mps 674 mmHg 79%
    01:00 -1°C° 0 mm 3 mps 674 mmHg 77%
    02:00 -1°C° 0 mm 3 mps 674 mmHg 76%
    03:00 -2°C° 0 mm 2 mps 674 mmHg 75%
    04:00 -2°C° 0 mm 2 mps 674 mmHg 74%
    05:00 -2°C° 0 mm 2 mps 674 mmHg 71%
    06:00 -1°C° 0 mm 3 mps 674 mmHg 69%
    07:00 0°C° 0 mm 3 mps 675 mmHg 66%
    08:00 +1°C° 0 mm 3 mps 675 mmHg 62%
    09:00 +1°C° 0 mm 4 mps 676 mmHg 59%
    10:00 +4°C° 0 mm 4 mps 676 mmHg 56%
    11:00 +5°C° 0 mm 4 mps 676 mmHg 54%
    12:00 +6°C° 0 mm 4 mps 676 mmHg 52%
    13:00 +6°C° 0 mm 4 mps 676 mmHg 50%
    14:00 +6°C° 0 mm 4 mps 676 mmHg 51%
    15:00 +6°C° 0 mm 4 mps 676 mmHg 52%
    16:00 +6°C° 0 mm 5 mps 676 mmHg 53%
    17:00 +4°C° 0 mm 4 mps 676 mmHg 59%
    18:00 +3°C° 0 mm 3 mps 676 mmHg 65%
    19:00 +1°C° 0 mm 3 mps 675 mmHg 70%
    20:00 0°C° 0 mm 3 mps 676 mmHg 71%
    21:00 +1°C° 0 mm 2 mps 676 mmHg 72%
    22:00 -1°C° 0 mm 2 mps 677 mmHg 73%
    23:00 -1°C° 0 mm 2 mps 676 mmHg 73%

    7 April, Tuesday

    Time Temperature Precipitation Wind Pressure Humidity
    00:00 -2°C° 0 mm 2 mps 676 mmHg 74%
    01:00 0°C° 0 mm 1 mps 676 mmHg 74%
    02:00 0°C° 0 mm 1 mps 676 mmHg 73%
    03:00 -1°C° 0 mm 1 mps 676 mmHg 72%
    04:00 -1°C° 0 mm 1 mps 676 mmHg 70%
    05:00 0°C° 0 mm 1 mps 676 mmHg 65%
    06:00 +1°C° 0 mm 2 mps 676 mmHg 61%
    07:00 +2°C° 0 mm 2 mps 676 mmHg 56%
    08:00 +2°C° 0 mm 3 mps 677 mmHg 51%
    09:00 +4°C° 0 mm 3 mps 677 mmHg 45%
    10:00 +6°C° 0 mm 4 mps 677 mmHg 40%
    11:00 +6°C° 0 mm 4 mps 677 mmHg 40%
    12:00 +7°C° 0 mm 4 mps 678 mmHg 40%
    13:00 +8°C° 0 mm 5 mps 678 mmHg 41%
    14:00 +8°C° 0 mm 5 mps 677 mmHg 43%
    15:00 +7°C° 0 mm 5 mps 677 mmHg 45%
    16:00 +7°C° 0 mm 5 mps 677 mmHg 47%
    17:00 +5°C° 0 mm 4 mps 677 mmHg 53%
    18:00 +3°C° 0 mm 3 mps 677 mmHg 60%
    19:00 +1°C° 0 mm 3 mps 676 mmHg 67%
    20:00 +2°C° 0 mm 2 mps 677 mmHg 69%
    21:00 +1°C° 0 mm 2 mps 677 mmHg 72%
    22:00 -1°C° 0 mm 2 mps 677 mmHg 74%
    23:00 -1°C° 0 mm 2 mps 677 mmHg 75%

    8 April, Wednesday

    Time Temperature Precipitation Wind Pressure Humidity
    00:00 -1°C° 0 mm 2 mps 676 mmHg 76%
    01:00 0°C° 0 mm 1 mps 676 mmHg 77%
    02:00 0°C° 0 mm 1 mps 676 mmHg 78%
    03:00 0°C° 0 mm 1 mps 676 mmHg 78%
    04:00 0°C° 0 mm 1 mps 676 mmHg 79%
    05:00 +1°C° 0 mm 1 mps 676 mmHg 75%
    06:00 +1°C° 0 mm 2 mps 676 mmHg 70%
    07:00 +2°C° 0 mm 2 mps 676 mmHg 66%
    08:00 +4°C° 0 mm 2 mps 676 mmHg 62%
    09:00 +4°C° 0 mm 3 mps 676 mmHg 57%
    10:00 +7°C° 0 mm 3 mps 676 mmHg 52%
    11:00 +8°C° 0 mm 3 mps 676 mmHg 50%
    12:00 +9°C° 0 mm 3 mps 675 mmHg 48%
    13:00 +10°C° 0 mm 3 mps 675 mmHg 47%
    14:00 +10°C° 0 mm 3 mps 675 mmHg 49%
    15:00 +10°C° 0 mm 3 mps 674 mmHg 51%
    16:00 +10°C° 0 mm 3 mps 674 mmHg 53%
    17:00 +8°C° 0 mm 3 mps 674 mmHg 59%
    18:00 +6°C° 0 mm 2 mps 673 mmHg 65%
    19:00 +4°C° 0 mm 2 mps 673 mmHg 71%
    20:00 +4°C° 0 mm 2 mps 673 mmHg 74%
    21:00 +4°C° 0 mm 1 mps 673 mmHg 76%
    22:00 +3°C° 0 mm 1 mps 673 mmHg 78%
    23:00 +3°C° 0 mm 1 mps 673 mmHg 79%

    9 April, Thursday

    Time Temperature Precipitation Wind Pressure Humidity
    00:00 +2°C° 0 mm 1 mps 673 mmHg 80%
    01:00 +2°C° 0 mm 1 mps 673 mmHg 81%
    02:00 +2°C° 0 mm 1 mps 672 mmHg 82%
    03:00 +1°C° 0 mm 1 mps 672 mmHg 82%
    04:00 +1°C° 0 mm 1 mps 672 mmHg 83%
    05:00 +2°C° 0 mm 1 mps 672 mmHg 79%
    06:00 +3°C° 0 mm 1 mps 673 mmHg 74%
    07:00 +5°C° 0 mm 1 mps 673 mmHg 70%
    08:00 +6°C° 0 mm 1 mps 673 mmHg 63%
    09:00 +8°C° 0 mm 1 mps 673 mmHg 56%
    10:00 +9°C° 0 mm 2 mps 673 mmHg 50%
    11:00 +10°C° 0 mm 2 mps 673 mmHg 46%
    12:00 +12°C° 0 mm 2 mps 673 mmHg 43%
    13:00 +13°C° 0 mm 2 mps 673 mmHg 39%
    14:00 +13°C° 0 mm 2 mps 673 mmHg 39%
    15:00 +13°C° 0 mm 2 mps 672 mmHg 40%
    16:00 +13°C° 0 mm 2 mps 672 mmHg 40%
    17:00 +10°C° 0 mm 2 mps 672 mmHg 47%
    18:00 +9°C° 0 mm 1 mps 671 mmHg 54%
    19:00 +7°C° 0 mm 1 mps 671 mmHg 61%
    20:00 +7°C° 0 mm 1 mps 671 mmHg 61%
    21:00 +6°C° 0 mm 1 mps 671 mmHg 62%
    22:00 +5°C° 0 mm 1 mps 672 mmHg 62%
    23:00 +5°C° 0 mm 1 mps 671 mmHg 63%
    Show more